Regional Weather Roundup
Issued by NWS Portland, ME

Current Version | Previous Version | Text Only | Print | Product List | Glossary On
Versions: 1 2 3 4 5 6 7 8 9 10 11 12 13 14 15 16 17 18 19 20 21 22 23 24 25 26 27 28 29 30 31 32 33 34 35 36 37 38 39 40 41 42 43 44 45 46 47 48 49 50
000 ASUS41 KGYX 061310 RWRGYX WEATHER ROUNDUP FOR MAINE AND NEW HAMPSHIRE NATIONAL WEATHER SERVICE GRAY ME 900 AM EDT MON JUL 06 2015 MEZ002-005-006-010-012-015-018-020-021-024-026-027-029-061400- MAINE CITY SKY/WX TMP DP RH WIND PRES REMARKS PORTLAND NOT AVBL WISCASSET NOT AVBL FRYEBURG NOT AVBL AUGUSTA NOT AVBL BANGOR NOT AVBL GREENVILLE N/A 70 59 68 VRB5 30.17R MILLINOCKET NOT AVBL HOULTON NOT AVBL PRESQUE ISLE NOT AVBL FRENCHVILLE NOT AVBL CARIBOU NOT AVBL $$ NHZ002-005-008-009-011-012-014-061400- NEW HAMPSHIRE CITY SKY/WX TMP DP RH WIND PRES REMARKS PORTSMOUTH MOSUNNY 75 60 60 CALM 30.15S ROCHESTER NOT AVBL MANCHESTER NOT AVBL CONCORD NOT AVBL BERLIN NOT AVBL WHITEFIELD NOT AVBL JAFFREY NOT AVBL LEBANON NOT AVBL MT WASHINGTON MOSUNNY 48 45 87 W22 N/A $$ VTZ005-007-008-061400- VERMONT CITY SKY/WX TMP DP RH WIND PRES REMARKS ST JOHNSBURY N/A 62 56 80 MISG 30.19S $$ MAZ007-012-024-CTZ003-RIZ002-NYZ038-NYZ072-061400- SOUTHERN NEW ENGLAND AND NY CITY SKY/WX TMP DP RH WIND PRES REMARKS $$ ANZ081-ANZ082-ANZ150-NHZ014-MEZ023>029-061400- COASTAL MARINE OBSERVATIONS STATION/POSITION TIME TEMP WIND PRES WAVE AIR SEA DIR/SP/G HT/PER (UTC) (F) (DEG/KT/KT) (MB) (FT/S) MOUNT DESERT ROC 1300 57 270/ 7/ 7 1021.1R MATINICUS ROCK 1200 62 310/ 8/ 8 1020.5R ISLE OF SHOALS 1200 67 330/ 6/ 6 1020.5R JEFFREYS LEDGE 1203 60 N/A 2/ 8 CASHES LEDGE BUO 1250 62 59 1021.0R 3/ 8 GEORGES BANK BUO 1150 60 58 260/ 6/ 6 1020.9 5/ 9 $$ .............KEY.............. WCI - WIND CHILL TC - TEMPERATURE IN CELSIUS VSB - VISIBILITY IN MILES HX - HEAT INDEX FAIR- INDICATES FEW OR NO CLOUDS BELOW 12,000 FT, WITH NO SIGNIFICANT WEATHER AND/OR OBSTRUCTIONS TO VISIBILITY.

USA.gov is the U.S. government's official web portal to all federal, state and local government web resources and services.